Location: Prairie State College
(41.5244°N, 87.6382°W)
Time: 18:46:55
(UTC-05:00)

Amateur Radio Satellites - All Passes

Search period start: 18 September 2014 18:16
Search period end: 19 September 2014 18:16
Location: Prairie State College, 41.5244°N, 87.6382°W

Satellite Date Start Highest point End Downlink Frequencies (MHz)
Time Altitude Azimuth
STRAND 1 18 Sep 18:17:15 18:18:19 11° 88° (E) 18:19:24 ?
AO-7 18 Sep 18:28:17 18:31:51 13° 272° (W) 18:35:27 29.400 - 29.500 MHz
JAS-2 18 Sep 18:32:20 18:37:20 42° 261° (W) 18:42:15 435.800 - 435.900 CW/SSB, 435.910 FM
Hamsat 18 Sep 18:33:27 18:37:28 36° 263° (W) 18:41:30 145.90 MHz
Saudisat 1A 18 Sep 18:34:49 18:38:51 35° 311° (NW) 18:42:56 436.775 MHz
HO-68 18 Sep 18:43:39 18:44:59 11° 47° (NE) 18:46:20 435.675 MHz FM
OPAL 18 Sep 19:15:20 19:18:43 18° 301° (WNW) 19:22:04 ?
SO-67 18 Sep 19:15:33 19:19:00 80° 258° (WSW) 19:22:29 435.3500 MHz FM
KITSAT 1 18 Sep 19:18:01 19:25:41 50° 112° (ESE) 19:33:22 435.175 FM
STRAND 1 18 Sep 19:53:00 19:58:10 87° 284° (WNW) 20:03:18 ?
Sapphire 18 Sep 19:57:14 19:59:52 14° 38° (NE) 20:02:30 437.095 MHz 1200 baud AX-25 AFSK
UKube-1 18 Sep 20:20:06 20:22:36 15° 63° (ENE) 20:25:06 145.840 MHz, 145.915 MHz
PCSat 18 Sep 20:23:30 20:27:35 21° 45° (NE) 20:31:39 145.825 MHz
HO-68 18 Sep 20:24:15 20:31:07 54° 67° (ENE) 20:38:02 435.675 MHz FM
KITSAT 1 18 Sep 21:13:38 21:21:12 42° 312° (NW) 21:28:49 435.175 FM
FUNcube-1 18 Sep 21:26:27 21:29:49 22° 66° (ENE) 21:33:15 145.950 - 145.970 MHz USB
STRAND 1 18 Sep 21:34:47 21:36:33 12° 302° (WNW) 21:38:19 ?
Oscar 11 18 Sep 21:38:15 21:42:35 71° 75° (ENE) 21:46:57 145.825 FM, Beacon 2401.500 USB
Sapphire 18 Sep 21:38:55 21:44:21 68° 59° (ENE) 21:49:44 437.095 MHz 1200 baud AX-25 AFSK
UKube-1 18 Sep 21:54:09 21:58:22 52° 259° (W) 22:02:37 145.840 MHz, 145.915 MHz
PCSat 18 Sep 22:06:07 22:11:31 68° 244° (WSW) 22:16:53 145.825 MHz
HO-68 18 Sep 22:13:04 22:19:06 29° 265° (W) 22:25:10 435.675 MHz FM
SO-50 18 Sep 22:14:14 22:18:16 34° 115° (ESE) 22:22:25 436.795 FM
FUNcube-1 18 Sep 23:01:56 23:05:58 36° 263° (W) 23:10:07 145.950 - 145.970 MHz USB
KITSAT 1 18 Sep 23:14:55 23:19:10 15° 339° (NNW) 23:23:26 435.175 FM
Oscar 11 18 Sep 23:18:37 23:19:14 10° 271° (W) 23:19:52 145.825 FM, Beacon 2401.500 USB
Sapphire 18 Sep 23:23:50 23:27:09 17° 256° (WSW) 23:30:29 437.095 MHz 1200 baud AX-25 AFSK
SO-50 18 Sep 23:54:55 23:58:51 29° 314° (NW) 00:02:53 436.795 FM
UOSAT-12 18 Sep 23:57:05 00:01:11 32° 114° (ESE) 00:05:22 437.025 FM, 437.400 FM
AO-40 19 Sep 00:58:30 02:04:56 15° 234° (SW) 03:44:53 Beacon 2401.320
Oscar 19 19 Sep 01:02:43 01:04:03 11° 88° (E) 01:05:23 437.125 CW, 437.150 USB
KITSAT 1 19 Sep 01:16:09 01:18:55 12° 11° (N) 01:21:42 435.175 FM
Saudisat 1A 19 Sep 01:21:54 01:25:35 25° 46° (NE) 01:29:15 436.775 MHz
UOSAT-12 19 Sep 01:37:08 01:41:18 32° 312° (NW) 01:45:33 437.025 FM, 437.400 FM
Oscar 16 19 Sep 01:38:52 01:43:14 27° 95° (E) 01:47:34 437.025 USB, Beacon 2401.1428
AO-Echo 19 Sep 01:58:44 02:02:12 19° 93° (E) 02:05:42 ?
ITAMSAT 1 19 Sep 02:20:33 02:24:59 27° 95° (E) 02:29:23 435.822 SSB
JAS-1B 19 Sep 02:24:21 02:29:32 34° 96° (E) 02:34:39 435.800 - 435.900 CW/SSB
Uribyol 2 19 Sep 02:24:48 02:29:28 32° 96° (E) 02:34:07 436.500 FM
Oscar 10/S400 19 Sep 02:27:29 03:36:45 31° 236° (WSW) 07:27:15 145.825 - 145.975 CW/USB, Beacon 145.810 USB
Oscar 19 19 Sep 02:38:51 02:44:03 85° 285° (WNW) 02:49:12 437.125 CW, 437.150 USB
TMSAT-1 19 Sep 02:42:39 02:45:48 16° 90° (E) 02:48:55 436.925 FM
RS-15 19 Sep 02:51:57 02:59:25 21° 100° (E) 03:06:47 29.354 - 29.394 USB, Beacon 29.352 USB
AO-27 19 Sep 02:54:52 03:00:01 59° 101° (E) 03:05:10 436.795 MHz FM
Saudisat 1A 19 Sep 03:01:09 03:05:17 40° 244° (WSW) 03:09:23 436.775 MHz
ISS 19 Sep 03:01:40 03:04:56 56° 141° (SE) 03:08:12 145.800 FM
KITSAT 1 19 Sep 03:10:56 03:17:42 28° 39° (NE) 03:24:25 435.175 FM
OPAL 19 Sep 03:14:00 03:17:06 16° 58° (ENE) 03:20:13 ?
Oscar 16 19 Sep 03:17:54 03:22:38 37° 292° (WNW) 03:27:20 437.025 USB, Beacon 2401.1428
PANSAT 19 Sep 03:22:23 03:23:40 11° 177° (S) 03:24:57 not established
AO-Echo 19 Sep 03:36:33 03:41:10 47° 289° (WNW) 03:45:54 ?
Gurwin Techsat 1B 19 Sep 03:43:19 03:48:39 79° 103° (ESE) 03:53:58 435.225 FM
ITAMSAT 1 19 Sep 03:59:46 04:04:31 37° 292° (WNW) 04:09:16 435.822 SSB
Uribyol 2 19 Sep 04:04:17 04:08:53 32° 293° (WNW) 04:13:28 436.500 FM
JAS-1B 19 Sep 04:15:12 04:20:12 31° 295° (WNW) 04:25:06 435.800 - 435.900 CW/SSB
Oscar 19 19 Sep 04:20:53 04:22:34 12° 302° (WNW) 04:24:15 437.125 CW, 437.150 USB
TMSAT-1 19 Sep 04:20:54 04:26:10 65° 287° (WNW) 04:31:24 436.925 FM
AO-7 19 Sep 04:31:10 04:38:45 38° 98° (E) 04:46:17 29.400 - 29.500 MHz
AO-27 19 Sep 04:35:32 04:39:04 19° 298° (WNW) 04:42:36 436.795 MHz FM
ISS 19 Sep 04:39:00 04:41:50 25° 338° (NNW) 04:44:41 145.800 FM
Uosat F 19 Sep 04:45:59 04:50:40 38° 98° (E) 04:55:20 435.120 FM
OPAL 19 Sep 04:50:12 04:55:22 73° 255° (WSW) 05:00:36 ?
RS-15 19 Sep 04:59:04 05:10:09 88° 121° (ESE) 05:21:08 29.354 - 29.394 USB, Beacon 29.352 USB
KITSAT 1 19 Sep 05:05:55 05:14:01 82° 242° (WSW) 05:22:04 435.175 FM
Gurwin Techsat 1B 19 Sep 05:25:07 05:27:56 15° 300° (WNW) 05:30:45 435.225 FM
STRAND 1 19 Sep 05:32:14 05:35:33 18° 62° (ENE) 05:38:52 ?
JAS-2 19 Sep 05:39:33 05:44:23 24° 95° (E) 05:49:38 435.800 - 435.900 CW/SSB, 435.910 FM
ISS 19 Sep 06:17:29 06:19:25 14° 359° (N) 06:21:21 145.800 FM
Hamsat 19 Sep 06:18:54 06:22:54 38° 97° (E) 06:26:49 145.90 MHz
AO-7 19 Sep 06:23:48 06:31:39 50° 297° (WNW) 06:39:30 29.400 - 29.500 MHz
Uosat F 19 Sep 06:25:10 06:29:15 26° 295° (WNW) 06:33:20 435.120 FM
SO-50 19 Sep 06:45:15 06:49:43 37° 49° (NE) 06:54:12 436.795 FM
KITSAT 1 19 Sep 07:03:48 07:08:09 16° 260° (W) 07:12:30 435.175 FM
STRAND 1 19 Sep 07:09:15 07:14:15 60° 259° (W) 07:19:18 ?
RS-15 19 Sep 07:14:29 07:24:00 33° 327° (NNW) 07:33:36 29.354 - 29.394 USB, Beacon 29.352 USB
JAS-2 19 Sep 07:23:51 07:29:39 56° 288° (WNW) 07:36:12 435.800 - 435.900 CW/SSB, 435.910 FM
MaSat-1 19 Sep 07:48:53 07:52:58 26° 106° (ESE) 07:57:03 437.345 MHz
ISS 19 Sep 07:54:21 07:57:03 22° 19° (NNE) 07:59:43 145.800 FM
Hamsat 19 Sep 07:55:35 07:58:34 19° 294° (WNW) 08:01:31 145.90 MHz
SO-67 19 Sep 08:11:56 08:15:22 66° 284° (WNW) 08:18:47 435.3500 MHz FM
AO-7 19 Sep 08:20:10 08:22:28 11° 318° (NW) 08:24:45 29.400 - 29.500 MHz
SO-50 19 Sep 08:26:00 08:30:11 30° 246° (WSW) 08:34:23 436.795 FM
UOSAT-12 19 Sep 08:26:16 08:30:32 32° 48° (NE) 08:34:43 437.025 FM, 437.400 FM
MaSat-1 19 Sep 09:24:47 09:29:33 42° 302° (WNW) 09:34:13 437.345 MHz
Oscar 11 19 Sep 09:27:41 09:29:38 13° 90° (E) 09:31:34 145.825 FM, Beacon 2401.500 USB
ISS 19 Sep 09:30:44 09:34:04 77° 217° (SW) 09:37:23 145.800 FM
RS-15 19 Sep 09:33:29 09:41:10 21° 3° (N) 09:48:57 29.354 - 29.394 USB, Beacon 29.352 USB
HO-68 19 Sep 09:39:01 09:46:03 55° 101° (ESE) 09:53:03 435.675 MHz FM
UKube-1 19 Sep 09:42:36 09:46:12 25° 96° (E) 09:49:48 145.840 MHz, 145.915 MHz
UOSAT-12 19 Sep 10:06:26 10:10:40 33° 246° (WSW) 10:14:48 437.025 FM, 437.400 FM
FUNcube-1 19 Sep 10:50:33 10:54:59 44° 98° (E) 10:59:21 145.950 - 145.970 MHz USB
Oscar 11 19 Sep 11:01:54 11:06:10 57° 286° (WNW) 11:10:24 145.825 FM, Beacon 2401.500 USB
PCSat 19 Sep 11:07:25 11:10:21 15° 103° (ESE) 11:13:16 145.825 MHz
UKube-1 19 Sep 11:18:36 11:22:23 29° 292° (WNW) 11:26:09 145.840 MHz, 145.915 MHz
HO-68 19 Sep 11:27:20 11:33:23 31° 299° (WNW) 11:39:27 435.675 MHz FM
RS-15 19 Sep 11:48:01 11:58:02 37° 37° (NE) 12:08:18 29.354 - 29.394 USB, Beacon 29.352 USB
Oscar 19 19 Sep 12:18:40 12:22:10 19° 62° (ENE) 12:25:40 437.125 CW, 437.150 USB
Sapphire 19 Sep 12:20:42 12:26:00 62° 115° (ESE) 12:31:21 437.095 MHz 1200 baud AX-25 AFSK
FUNcube-1 19 Sep 12:27:43 12:31:02 20° 295° (WNW) 12:34:20 145.950 - 145.970 MHz USB
AO-27 19 Sep 12:37:40 12:39:39 12° 58° (ENE) 12:41:38 436.795 MHz FM
PCSat 19 Sep 12:47:40 12:53:04 75° 301° (WNW) 12:58:31 145.825 MHz
Oscar 16 19 Sep 12:55:48 13:00:37 40° 69° (ENE) 13:05:28 437.025 USB, Beacon 2401.1428
Oscar 10/S400 19 Sep 13:05:37 13:12:17 11° 151° (SSE) 13:18:00 145.825 - 145.975 CW/USB, Beacon 145.810 USB
JAS-1B 19 Sep 13:07:58 13:15:37 39° 67° (ENE) 13:22:10 435.800 - 435.900 CW/SSB
AO-Echo 19 Sep 13:12:07 13:15:58 25° 67° (ENE) 13:19:47 ?
Gurwin Techsat 1B 19 Sep 13:27:14 13:30:33 17° 61° (ENE) 13:33:52 435.225 FM
ITAMSAT 1 19 Sep 13:38:39 13:43:29 42° 69° (ENE) 13:48:21 435.822 SSB
Uribyol 2 19 Sep 13:42:46 13:47:43 49° 71° (ENE) 13:52:43 436.500 FM
AO-7 19 Sep 13:44:11 13:47:08 12° 43° (NE) 13:50:05 29.400 - 29.500 MHz
Oscar 19 19 Sep 13:55:55 14:01:02 59° 259° (W) 14:06:11 437.125 CW, 437.150 USB
RS-15 19 Sep 14:00:24 14:11:30 78° 242° (WSW) 14:23:04 29.354 - 29.394 USB, Beacon 29.352 USB
TMSAT-1 19 Sep 14:03:14 14:07:31 26° 65° (ENE) 14:11:50 436.925 FM
Sapphire 19 Sep 14:05:38 14:09:51 23° 314° (NW) 14:14:06 437.095 MHz 1200 baud AX-25 AFSK
AO-27 19 Sep 14:13:12 14:18:22 89° 75° (ENE) 14:23:35 436.795 MHz FM
PCSat 19 Sep 14:34:30 14:37:26 15° 321° (NW) 14:40:23 145.825 MHz
Oscar 16 19 Sep 14:35:52 14:40:05 25° 266° (W) 14:44:20 437.025 USB, Beacon 2401.1428
AO-Echo 19 Sep 14:50:18 14:54:36 34° 263° (W) 14:58:53 ?
JAS-1B 19 Sep 14:57:49 15:06:05 46° 260° (W) 15:13:07 435.800 - 435.900 CW/SSB
Gurwin Techsat 1B 19 Sep 15:04:41 15:09:57 67° 258° (WSW) 15:15:15 435.225 FM
ITAMSAT 1 19 Sep 15:19:02 15:23:08 24° 266° (W) 15:27:15 435.822 SSB
Uribyol 2 19 Sep 15:23:41 15:27:27 20° 267° (W) 15:31:15 436.500 FM
AO-7 19 Sep 15:30:05 15:38:03 53° 64° (ENE) 15:46:00 29.400 - 29.500 MHz
TMSAT-1 19 Sep 15:42:15 15:47:13 41° 262° (W) 15:52:13 436.925 FM
AO-27 19 Sep 15:57:48 15:58:34 10° 272° (W) 15:59:20 436.795 MHz FM
Uosat F 19 Sep 15:59:20 16:04:11 54° 72° (ENE) 16:09:04 435.120 FM
RS-15 19 Sep 16:15:28 16:22:01 18° 262° (W) 16:28:46 29.354 - 29.394 USB, Beacon 29.352 USB
OPAL 19 Sep 17:00:31 17:05:00 29° 98° (E) 17:09:24 ?
Saudisat 1A 19 Sep 17:07:18 17:11:32 50° 118° (ESE) 17:15:48 436.775 MHz
Hamsat 19 Sep 17:12:23 17:16:09 29° 69° (ENE) 17:19:55 145.90 MHz
AO-7 19 Sep 17:23:38 17:31:03 36° 263° (W) 17:38:30 29.400 - 29.500 MHz
JAS-2 19 Sep 17:37:01 17:42:13 63° 73° (ENE) 17:47:21 435.800 - 435.900 CW/SSB, 435.910 FM
Uosat F 19 Sep 17:40:03 17:43:17 17° 268° (W) 17:46:33 435.120 FM
MaSat-1 19 Sep 17:41:24 17:45:07 41° 58° (ENE) 17:48:18 437.345 MHz
KITSAT 1 19 Sep 17:44:30 17:47:40 13° 98° (E) 17:50:50 435.175 FM
